STARLINK-11520, 62834

Orbit data source: Space-Track

STARLINK-11520, 62834 is a payload satellite owned by SpaceX/Seattle (US) in LEO that was launched on Mon, 27 Jan 2025 UTC via an FALCON 9 launch vehicle from the Air Force Eastern Test Range (AFETR). Payload-class satellites include a variety of spacecraft equipped with specific instruments for various scientific and technological missions. These include communications satellites like Starlink; space stations such as the ISS; scientific satellites like the Hubble; Earth observation satellites from companies like Planet Labs, Umbra, and HawkEye 360; GPS; miniature CubeSats for education and research; and military/defense satellites.

Loading next visibility...
Identifier
62834, 2025-019F
Orbit
LEO
Last TLE update
10 hours ago
Origin
Manufacturer
SpaceX/Seattle
Mission
Operational Commercial Communications
Bus & Motor
STARLINK V2M, Unknown motor
Mass
730 kg wet, ~700 kg dry
Launch date (UTC)
2025-01-27 (5 months ago)
Launch vehicle
FALCON 9
Launch site
Air Force Eastern Test Range (AFETR)
Object type
Payload
Rocket body
Debris
Shape & HBR
Box + 2 Pan, 29 m
Radar Cross Section
36.964 m², Large (>1 m²)

Expand to show TLE details & history

TLE from 10 hours ago
0 STARLINK-11520
1 62834U 25019F   25186.48139278  .00235342  00000-0  17738-2 0  9991
2 62834  42.9994 355.8644 0008422 291.1994  68.7973 15.70969340 25010
Epoch: 2025-07-05T11:33Z
TLE epoch observation values (Epoch: 2025-07-05T11:33:12.336Z)
Latitude
-0.00005°
Longitude
-101.15587°
Altitude
353.85 km
Speed
7.7 km/s
True Right ascension
23h 43m 27s
True Declination
0° 00' 00"
Sunlit
Object was in daylight at epoch
Visualization orbit readout
Latitude
-38.27204°
Longitude
-161.05187°
Altitude
361.223 km
Speed
7.696 km/s
Apparent Right ascension
20h 46m 09s
Apparent Declination
-40° 01' 44"
Sunlit
Object is in full shadow
Visualization observer readout
Local Sidereal Time
09:53:39
Azimuth
95.94° ESE
Elevation
-77.086°
Doppler factor
1
Orbital elements
Apogee altitude
363.78 km
Perigee altitude
352.434 km
Semi-major axis
6,736.244 km
Eccentricity
0.00084
Inclination
42.9994°
RAAN
355.8644°
Arg. of periapsis
291.1994°
True anomaly
Unknown
Mean anomaly
68.7973°
Eccentric anomaly
Unknown
Mean motion
3.92569 °/min
Orbital period
91.7 mins
BSTAR
0.0017738
Loading maneuver chart data...
Loading SW <> Apogee altitude chart data...
Loading historical data...
Loading historical data...
Loading historical data...
Loading historical data...
Loading historical data...
Loading historical data...
Loading historical data...

STARLINK-11520 Visibility forecast

Observer location: undefined°, undefined°

Span
Click to sort rows by Start time (UTC) header in descending order
Start Az.
Max El. time (UTC)
Max El. Az.
Max El.
End time (UTC)
End Az.
4 mins2025-07-06 15:16:33.076Z241.266° WSW2025-07-06 15:18:33.076Z91.889° ESE39.676°2025-07-06 15:20:33.076Z74.382° E
4 mins2025-07-06 16:52:33.076Z291.578° WNW2025-07-06 16:54:33.076Z17.34° NNE33.926°2025-07-06 16:56:33.076Z67.528° E
|